| time (UTC) | temp F | wind direction | speed MPH | gust MPH | rain 1hr in | rain 24hr in | rain mn in | humidity % | barometer mb |
| 20260902091508 | 77 | 208 | 0.0 | 0.0 | 0.00 | 0.00 | 0.00 | 56 | 1014.6 |
| 20260902090005 | 77 | 208 | 0.0 | 0.0 | 0.00 | 0.00 | 0.00 | 58 | 1014.4 |
| 20260902084507 | 77 | 208 | 0.0 | 0.0 | 0.00 | 0.00 | 0.00 | 58 | 1014.5 |
| 20260902083002 | 77 | 208 | 0.0 | 0.0 | 0.00 | 0.00 | 0.00 | 58 | 1014.5 |
| 20260902081502 | 77 | 262 | 0.0 | 0.0 | 0.00 | 0.00 | 0.00 | 58 | 1014.6 |
| 20260902080101 | 77 | 262 | 0.0 | 0.0 | 0.00 | 0.00 | 0.00 | 59 | 1014.5 |
| 20260902080002 | 77 | 262 | 0.0 | 0.0 | 0.00 | 0.00 | 0.00 | 59 | 1014.6 |
| 20260902074609 | 77 | 262 | 0.0 | 0.0 | 0.00 | 0.00 | 0.00 | 59 | 1014.6 |
| 20260902073102 | 77 | 220 | 0.0 | 0.0 | 0.00 | 0.00 | 0.00 | 59 | 1014.8 |
| 20260902071557 | 77 | 174 | 0.0 | 0.0 | 0.00 | 0.00 | 0.00 | 61 | 1014.7 |
| 20260902070056 | 78 | 167 | 0.0 | 0.0 | 0.00 | 0.12 | 0.00 | 62 | 1014.7 |
| 20260902064555 | 78 | 240 | 0.0 | 0.0 | 0.00 | 0.12 | 0.00 | 63 | 1014.8 |
| 20260902063152 | 78 | 240 | 0.0 | 0.0 | 0.00 | 0.12 | 0.00 | 64 | 1015.0 |
| 20260902061601 | 78 | 240 | 0.0 | 0.0 | 0.00 | 0.12 | 0.00 | 66 | 1015.1 |
| 20260902060057 | 78 | 167 | 0.0 | 0.0 | 0.00 | 0.26 | 0.00 | 70 | 1015.0 |
| 20260902054607 | 79 | 167 | 0.0 | 0.0 | 0.00 | 0.26 | 0.00 | 75 | 1015.2 |
| 20260902053059 | 78 | 167 | 0.0 | 0.0 | 0.00 | 0.26 | 0.00 | 73 | 1015.4 |
| 20260902051543 | 78 | 167 | 0.0 | 0.0 | 0.00 | 0.26 | 0.00 | 71 | 1015.5 |
| 20260902050040 | 78 | 167 | 0.0 | 0.0 | 0.00 | 0.47 | 0.00 | 71 | 1015.5 |
| 20260902044539 | 78 | 167 | 0.0 | 0.0 | 0.00 | 0.47 | 0.00 | 71 | 1015.6 |
| 20260902043030 | 79 | 167 | 0.0 | 0.0 | 0.00 | 0.47 | 0.00 | 73 | 1015.7 |
| 20260902041528 | 79 | 167 | 0.0 | 0.0 | 0.00 | 0.47 | 0.00 | 76 | 1015.9 |
| 20260902040026 | 79 | 167 | 0.0 | 0.0 | 0.00 | 0.49 | 0.47 | 74 | 1016.0 |
| 20260902034527 | 79 | 167 | 0.0 | 0.0 | 0.00 | 0.49 | 0.47 | 75 | 1016.1 |
| 20260902033025 | 79 | 233 | 0.0 | 0.0 | 0.00 | 0.49 | 0.47 | 76 | 1016.1 |
| 20260902031524 | 79 | 233 | 0.0 | 0.0 | 0.00 | 0.49 | 0.47 | 75 | 1016.0 |
| 20260902030024 | 79 | 233 | 0.0 | 0.0 | 0.00 | 0.49 | 0.47 | 76 | 1016.0 |
| 20260902024531 | 80 | 142 | 0.0 | 0.0 | 0.00 | 0.49 | 0.47 | 78 | 1016.1 |
| 20260902023023 | 80 | 301 | 0.0 | 0.0 | 0.00 | 0.49 | 0.47 | 80 | 1016.1 |
| 20260902021522 | 81 | 301 | 0.0 | 0.0 | 0.00 | 0.49 | 0.47 | 80 | 1016.1 |
| 20260902020023 | 81 | 341 | 0.0 | 0.0 | 0.00 | 0.49 | 0.47 | 80 | 1016.1 |
| 20260902014522 | 80 | 274 | 0.0 | 0.0 | 0.00 | 0.49 | 0.47 | 80 | 1016.1 |
| 20260902013021 | 81 | 274 | 0.0 | 0.0 | 0.00 | 0.49 | 0.47 | 80 | 1015.8 |
| 20260902011523 | 81 | 274 | 0.0 | 0.0 | 0.00 | 0.49 | 0.47 | 80 | 1015.7 |
| 20260902010020 | 81 | 312 | 0.0 | 0.0 | 0.00 | 0.49 | 0.47 | 80 | 1015.6 |
| 20260902004520 | 82 | 358 | 0.0 | 0.0 | 0.00 | 0.49 | 0.47 | 80 | 1015.4 |
| 20260902003019 | 82 | 343 | 0.0 | 0.0 | 0.00 | 0.49 | 0.47 | 80 | 1015.1 |
| 20260902001518 | 82 | 274 | 0.0 | 0.0 | 0.00 | 0.49 | 0.47 | 80 | 1015.0 |
| 20260902000018 | 82 | 281 | 0.0 | 0.0 | 0.00 | 0.49 | 0.47 | 80 | 1014.9 |
| 20260901234518 | 83 | 338 | 0.0 | 0.0 | 0.00 | 0.49 | 0.47 | 78 | 1014.7 |
| 20260901233016 | 83 | 52 | 0.0 | 0.0 | 0.00 | 0.49 | 0.47 | 78 | 1014.6 |
| 20260901231516 | 83 | 46 | 0.0 | 0.0 | 0.00 | 0.49 | 0.47 | 77 | 1014.4 |
| 20260901230016 | 83 | 41 | 0.0 | 0.0 | 0.00 | 0.49 | 0.47 | 77 | 1014.3 |
| 20260901224515 | 83 | 7 | 0.0 | 0.0 | 0.00 | 0.49 | 0.47 | 76 | 1014.2 |
| 20260901223014 | 84 | 49 | 0.0 | 0.0 | 0.00 | 0.49 | 0.47 | 75 | 1014.0 |
| 20260901221513 | 84 | 49 | 0.0 | 0.0 | 0.00 | 0.49 | 0.47 | 74 | 1013.9 |
| 20260901220016 | 84 | 27 | 0.0 | 0.0 | 0.00 | 0.49 | 0.47 | 75 | 1013.8 |
| 20260901214510 | 84 | 7 | 0.0 | 0.0 | 0.00 | 0.49 | 0.47 | 74 | 1013.9 |
| 20260901213012 | 84 | 6 | 0.0 | 0.0 | 0.00 | 0.49 | 0.47 | 72 | 1013.7 |
| 20260901211507 | 86 | 72 | 0.0 | 0.0 | 0.00 | 0.49 | 0.47 | 71 | 1013.6 |
| 20260901210004 | 88 | 66 | 0.0 | 0.0 | 0.00 | 0.49 | 0.47 | 62 | 1013.6 |
| 20260901204505 | 90 | 171 | 0.0 | 0.0 | 0.00 | 0.49 | 0.47 | 59 | 1013.5 |
| 20260901203100 | 90 | 101 | 0.0 | 4.0 | 0.00 | 0.49 | 0.47 | 58 | 1013.4 |
| 20260901201554 | 91 | 92 | 0.0 | 0.0 | 0.00 | 0.49 | 0.47 | 55 | 1013.3 |
| 20260901200051 | 92 | 96 | 0.0 | 0.0 | 0.00 | 0.49 | 0.47 | 54 | 1013.3 |
| 20260901194548 | 91 | 129 | 0.0 | 3.0 | 0.00 | 0.49 | 0.47 | 55 | 1013.4 |
| 20260901193046 | 91 | 102 | 0.0 | 0.0 | 0.00 | 0.49 | 0.47 | 55 | 1013.5 |
| 20260901191556 | 91 | 85 | 0.0 | 0.0 | 0.00 | 0.49 | 0.47 | 57 | 1013.5 |
| 20260901190041 | 89 | 46 | 0.0 | 0.0 | 0.00 | 0.49 | 0.47 | 60 | 1013.4 |
| 20260901184546 | 87 | 105 | 0.0 | 0.0 | 0.00 | 0.49 | 0.47 | 61 | 1013.4 |
| 20260901183046 | 87 | 112 | 0.0 | 0.0 | 0.00 | 0.49 | 0.47 | 62 | 1013.8 |
| 20260901181535 | 88 | 117 | 0.0 | 0.0 | 0.00 | 0.49 | 0.47 | 63 | 1014.1 |
| 20260901180034 | 89 | 108 | 0.0 | 5.0 | 0.00 | 0.49 | 0.47 | 59 | 1014.2 |
| 20260901174536 | 91 | 110 | 0.0 | 6.0 | 0.00 | 0.49 | 0.47 | 61 | 1014.2 |
| 20260901173036 | 91 | 121 | 1.0 | 15.0 | 0.00 | 0.49 | 0.47 | 60 | 1014.3 |
| 20260901171531 | 91 | 105 | 0.0 | 0.0 | 0.00 | 0.49 | 0.47 | 63 | 1014.6 |
| 20260901170029 | 91 | 129 | 0.0 | 0.0 | 0.00 | 0.49 | 0.47 | 64 | 1014.9 |
| 20260901164539 | 91 | 65 | 0.0 | 7.0 | 0.00 | 0.49 | 0.47 | 64 | 1015.0 |
| 20260901163024 | 90 | 130 | 0.0 | 7.0 | 0.00 | 0.49 | 0.47 | 64 | 1015.1 |
| 20260901161543 | 89 | 84 | 0.0 | 6.0 | 0.00 | 0.49 | 0.47 | 68 | 1015.2 |
| 20260901160024 | 89 | 91 | 0.0 | 0.0 | 0.00 | 0.49 | 0.47 | 69 | 1015.4 |
| 20260901154523 | 90 | 59 | 0.0 | 2.0 | 0.00 | 0.49 | 0.47 | 69 | 1015.6 |
| 20260901153024 | 88 | 114 | 0.0 | 0.0 | 0.00 | 0.49 | 0.47 | 70 | 1015.7 |
| 20260901151520 | 88 | 165 | 0.0 | 0.0 | 0.00 | 0.49 | 0.47 | 71 | 1015.9 |
| 20260901150030 | 87 | 117 | 0.0 | 0.0 | 0.00 | 0.49 | 0.47 | 73 | 1016.1 |
| 20260901144528 | 87 | 116 | 0.0 | 0.0 | 0.00 | 0.49 | 0.47 | 75 | 1016.1 |
| 20260901143014 | 86 | 155 | 0.0 | 0.0 | 0.00 | 0.49 | 0.47 | 76 | 1016.0 |
| 20260901141513 | 85 | 194 | 0.0 | 0.0 | 0.00 | 0.49 | 0.47 | 78 | 1016.2 |
| 20260901140010 | 85 | 75 | 0.0 | 0.0 | 0.00 | 0.49 | 0.47 | 79 | 1016.1 |
| 20260901134507 | 84 | 82 | 0.0 | 0.0 | 0.00 | 0.49 | 0.47 | 78 | 1016.1 |
| 20260901133004 | 83 | 68 | 0.0 | 0.0 | 0.00 | 0.49 | 0.47 | 78 | 1016.1 |
| 20260901131504 | 83 | 359 | 0.0 | 0.0 | 0.00 | 0.49 | 0.47 | 80 | 1016.1 |
| 20260901124555 | 77 | 148 | 0.0 | 0.0 | 0.00 | 0.49 | 0.47 | 36 | 1015.9 |
| 20260901123051 | 77 | 142 | 0.0 | 0.0 | 0.00 | 0.49 | 0.47 | 37 | 1015.8 |
| 20260901121551 | 75 | 191 | 0.0 | 0.0 | 0.00 | 0.49 | 0.47 | 39 | 1015.5 |
| 20260901120049 | 75 | 229 | 0.0 | 0.0 | 0.00 | 0.49 | 0.47 | 41 | 1015.7 |
| 20260901114627 | 74 | 229 | 0.0 | 0.0 | 0.00 | 0.49 | 0.47 | 43 | 1015.7 |
| 20260901113050 | 73 | 145 | 0.0 | 0.0 | 0.00 | 0.49 | 0.47 | 44 | 1015.6 |
| 20260901111550 | 73 | 231 | 0.0 | 0.0 | 0.00 | 0.49 | 0.47 | 44 | 1015.3 |
| 20260901110048 | 73 | 184 | 0.0 | 0.0 | 0.00 | 0.49 | 0.47 | 45 | 1015.2 |
| 20260901104547 | 73 | 200 | 0.0 | 0.0 | 0.00 | 0.49 | 0.47 | 45 | 1015.0 |
| 20260901103047 | 73 | 214 | 0.0 | 0.0 | 0.00 | 0.49 | 0.47 | 45 | 1015.0 |
| 20260901101550 | 72 | 211 | 0.0 | 0.0 | 0.00 | 0.49 | 0.47 | 45 | 1015.1 |
| 20260901100049 | 72 | 211 | 0.0 | 0.0 | 0.00 | 0.49 | 0.47 | 45 | 1014.8 |
| 20260901094545 | 72 | 144 | 0.0 | 0.0 | 0.00 | 0.49 | 0.47 | 45 | 1014.7 |
| 20260901093044 | 72 | 227 | 0.0 | 0.0 | 0.00 | 0.49 | 0.47 | 45 | 1014.4 |